Regional Weather Roundup
Issued by NWS Wakefield, VA

Home | Current Version | Previous Version | Graphics & Text | Print | Product List | Glossary On
Versions: 1 2 3 4 5 6 7 8 9 10 11 12 13 14 15 16 17 18 19 20 21 22 23 24 25 26 27 28 29 30 31 32 33 34 35 36 37 38 39 40 41 42 43 44 45 46 47 48 49 50
000
ASUS41 KAKQ 231510
RWRAKQ

REGIONAL WEATHER ROUNDUP
NATIONAL WEATHER SERVICE WAKEFIELD VA
1100 AM EDT WED JUL 23 2014

Note: "fair" indicates few or no clouds below 12,000 feet with no
significant weather and/or obstructions to visibility. * = Denotes
station may not report precipitation (e.g., rain,snow,etc.),
thunder or fog.

VAZ042-051-052>054-056-231600-
NORTHERN VIRGINIA

CITY           SKY/WX    TMP DP  RH WIND       PRES   REMARKS
WASH NATIONAL  MOSUNNY   86  72  62 S10       29.97F
DULLES         MOSUNNY   84  72  67 VRB7      29.98F
FORT BELVOIR   NOT AVBL
QUANTICO       MOSUNNY   82  74  76 S12       29.98F
FREDERICKSBRG* MOSUNNY   84  73  68 S6        29.98F
STAFFORD*      SUNNY     85  74  69 S7        30.02F
WARRENTON      SUNNY     87  79  77 S5        29.98F HX 102
CULPEPER*      SUNNY    N/A N/A N/A CALM      29.98F
MANASSAS*      SUNNY     84  75  74 SW3       29.98F
LEESBURG*      SUNNY     86  73  66 S6        29.98F
WINCHESTER     SUNNY     86  70  58 W5        29.99F
$$

VAZ048-049-060>072-079>083-231600-
CENTRAL AND SOUTH CENTRAL VIRGINIA...AND NORTH CENTRAL NORTH CAROLINA

CITY           SKY/WX    TMP DP  RH WIND       PRES   REMARKS
RICHMOND       MOSUNNY   88  70  55 VRB7      30.01F
CHESTERFIELD*  SUNNY    N/A N/A N/A SW6       30.02F
HANOVER        MOSUNNY   89  69  51 SW10      30.01F
TAPPAHANNOCK*  SUNNY     86  68  55 SW6       30.01F
CHARLOTTSVILLE MOSUNNY   84  72  67 VRB6      30.01F
ORANGE*        MOSUNNY   86  72  62 S5        30.01F
LOUISA*        SUNNY     86  72  62 SW3       29.99F
FARMVILLE*     MOSUNNY   86  70  58 SW9       30.00F
SOUTH HILL*    SUNNY     86  75  70 CALM      30.09F HX  95
ROANOKE RAPIDS PTSUNNY   84  73  70 CALM      30.04F
RALEIGH        PTSUNNY   85  73  67 VRB5      30.06F
$$

VAZ088>098-231600-
SOUTHEAST VIRGINIA

CITY           SKY/WX    TMP DP  RH WIND       PRES   REMARKS
NORFOLK        MOSUNNY   82  72  71 VRB6      30.03F
VIRGINIA BEACH PTSUNNY   82  72  71 W5        30.02F
NORFOLK NAVAL  PTSUNNY   81  73  76 W8        30.04F
WEST POINT*    SUNNY     85  72  64 S5        30.03F
NEWPORT NEWS   MOSUNNY   85  72  65 SW7       30.03F
LANGLEY AFB    MOSUNNY   81  73  77 SW9       30.02F
FORT EUSTIS    MOSUNNY   81  76  84 SE3       30.01F
WILLIAMSBURG*  MOSUNNY   84  73  70 SW5       30.03F
FRANKLIN*      MOSUNNY   81  73  78 CALM      30.04F
WAKEFIELD      SUNNY     83  73  72 SE3       30.02F
$$

VAZ020-022-025-037-045-231600-
WESTERN AND SOUTHWEST VIRGINIA

CITY           SKY/WX    TMP DP  RH WIND       PRES   REMARKS
STAUNTON*      SUNNY     84  69  62 S7        30.05F
HOT SPRINGS VA MOSUNNY   72  64  77 W10       30.21F
LYNCHBURG      MOSUNNY   83  69  62 SW5       30.06F
DANVILLE       SUNNY     85  70  60 W10       30.05F
MARTINSVILLE   SUNNY     86  70  58 SW5       30.09F
ROANOKE        MOSUNNY   83  68  60 S3        30.07F
BLACKSBURG     SUNNY     81  72  74 SW7       30.15F
DUBLIN*        MOSUNNY   82  70  65 W7        30.14F
MARION*        MOSUNNY   78  71  78 W8        30.19F
HILLSVILLE*    MOSUNNY   78  67  70 W8        30.18S
RICHLANDS*     PTSUNNY   78  70  75 SW5       30.18F
WISE*          HVY RAIN  68  68 100 CALM      30.21S
ABINGDON*      CLOUDY    77  70  80 SW7       30.17S
$$

MDZ021>025-VAZ099-100-231600-
SOUTHERN MARYLAND AND THE DELMARVA PENINSULA

CITY           SKY/WX    TMP DP  RH WIND       PRES   REMARKS
PATUXENT RIVER MOSUNNY   84  71  65 W10       29.99F
BAY BRIDGE APT   N/A     81  70  69 S7        29.97F
LEONARDTOWN    MOSUNNY   82  70  65 SW7       30.00F
DOVER          MOSUNNY   85  76  74 S9        29.96F
GEORGETOWN     MOSUNNY   84  73  69 S14       30.00F
EASTON         MOSUNNY   86  75  70 S10       30.02F HX  95
CAMBRIDGE      MOSUNNY   84  70  61 SW6       29.98F
SALISBURY      NOT AVBL
OCEAN CITY     SUNNY     80  74  81 S6        30.00F
WALLOPS ISLAND PTSUNNY   82  75  79 S8        30.01F
ACCOMACK*        N/A     81  72  74 SW5       30.02S
$$

NCZ012>017-030>032-231600-
EASTERN NORTH CAROLINA

CITY           SKY/WX    TMP DP  RH WIND       PRES   REMARKS
ELIZABETH CITY MOSUNNY   82  75  79 W5        30.04F
AHOSKIE*       MOSUNNY   80  72  78 CALM      30.04F
EDENTON*       MOSUNNY   81  74  77 SW8       30.05S
CURRITUCK*     PTSUNNY   84  72  65 W5        30.05S
KILL DEVIL HLS MOSUNNY   81  75  82 W8        30.03F
MANTEO         NOT AVBL
CAPE HATTERAS  PTSUNNY   83  75  77 VRB6      30.06S
GOLDSBORO      MOSUNNY   83  78  86 W7        30.04S
WASHINGTON     MOSUNNY   81  73  78 CALM      30.06F
GREENVILLE     MOSUNNY   82  73  74 CALM      30.07S
NEW BERN       PTSUNNY   85  75  72 W3        30.07F
WILMINGTON     MOSUNNY   85  73  67 VRB3      30.06F
$$

VAZ048-231600-
ELSEWHERE

CITY           SKY/WX    TMP DP  RH WIND       PRES   REMARKS
HARRISBURG PA  SUNNY     85  72  65 SE5       29.93F
BALTIMORE      MOSUNNY   85  72  65 SW8       29.96F
ANNAPOLIS      SUNNY     83  72  69 S9        29.96F
ANDREWS AFB    SUNNY     85  74  68 SW8       29.98F
WILMINGTON DE  MOSUNNY   84  73  69 SW8       29.96F
PHILADELPHIA   MOSUNNY   84  69  60 SW8       29.95F
WILDWOOD NJ*   MOSUNNY   82  72  69 S8        30.00F
ATLANTIC CITY  SUNNY     84  72  67 W8        29.98F
HENDERSON NC   SUNNY     83  70  64 SW3       30.06F
GREENSBORO     MOSUNNY   83  72  69 SW8       30.08F
ROCKY MOUNT    PTSUNNY   85  74  69 VRB3      30.05F
FAYETTEVILLE   PTSUNNY   86  73  65 W7        30.06F
CHARLOTTE      PTSUNNY   84  71  65 CALM      30.10F
$$

VAZ100-231600-
MARINE

STATION/POSITION TIME  TEMP    WIND        PRES    WAVE   SWELL
                       AIR SEA DIR/SP/G            HT/PER HT/PER
                 (UTC) (F)     (DEG/KT/KT) (MB)    (FT/S) (FT/S)
44066 TX TWR #4  1500   73 74  220/ 10/ 10 1015.8F   2/ 8   2/ 8
LEWES DE         1500   82 71  270/  5/  7 1015.4R
15NM E FENWICK I 1500   76 76              1016.2F   2/10
OCEAN-CITY-INLET 1500   76 72  190/  6/  9 1015.7F
WACHAPREAGUE VA  1500   83 80  230/  4/  5 1016.3F
THOMAS POINT MD  1500   78 79  170/ 12/ 13 1015.2F
GOOSES REEF MD   1500   80     200/  8/ 10 1015.9F
COVE POINT MD    1500   82     240/  9/ 12 1015.5F
SOLOMONS ISLAND  1500      81                N/A
BISHOPS HEAD MD  1500   78 80  190/  7/  9 1015.6F
PINEY POINT MD   1500          130/  4/  5   N/A
POTOMAC MD       1500   80     180/  4/  4 1015.3F
CAMBRIDGE MD     1500   84 80  210/  5/  9 1015.1F
LEWISETTA VA     1500   83 81  260/  7/  8 1015.5F
RAPPAHANNOCK LGT 1500          210/  7/  8 1017.1F
STINGRAY PT      1500   78     210/  4/  6 1017.3S
YORK RVR RNG VA  1500   79     270/  5/  6 1016.2F
YORKTOWN VA      1500   79 80  220/  5/  7 1016.4F
JAMESTOWN VA     1500   78     210/  2/  6   N/A
DOMINION TERM VA 1500   77     250/  6/  8 1017.2F
KIPTOPEKE VA     1500      80  260/  6/  7   N/A
CHES BAY BRIDGE  1500   76 78  260/ 10/ 10 1016.4S
CAPE HENRY VA    1500   78     310/  9/ 10 1015.7F
WILLOUBY STN VA  1500          240/  8/  9 1016.4S
S CRANEY ISL VA  1500          240/  5/  8 1017.0F
CAPE HENRY BUOY  1500      77                N/A     2/ 8
1ST LANDING BUOY 1500   77     280/  8/  8 1016.6F
CAPE CHARLES BUO 1500      76                N/A     2/ 8
OFFSHORE WE BUOY 1500      77                N/A     2/ 8
64NM E OF VA BCH 1500   77 78  300/  8/ 10 1016.8F   3/ 5   2/ 5
DUCK PIER NC     1500   78 73  270/  5/  7 1016.6S
44056 DUCK FRF   1500                        N/A     2/ 6
OREGON INLET NC  1500   81 80  270/  7/  9 1017.4R
HATTERAS NC      1500   80 82  270/  9/ 10 1018.5F
CAPE LOOKOUT NC  1400   81     300/  8/  9 1018.0F
$$


USA.gov is the U.S. government's official web portal to all federal, state and local government web resources and services.